Weather Service Report


874 
ASUS41 KRLX 281710
RWRRLX
West Virginia Regional Weather Roundup
National Weather Service Charleston WV
100 PM EDT FRI AUG 28 2015

Note: "fair" indicates few or no clouds below 12,000 feet with no
significant weather and/or obstructions to visibility.

WVZ003-281800-
Northern Panhandle of West Virginia
  
CITY           SKY/WX    TMP DP  RH WIND       PRES   REMARKS
WHEELING       PTSUNNY   74  50  42 E5        30.22F                  
$$

WVZ009-281800-
Northwest West Virginia
  
CITY           SKY/WX    TMP DP  RH WIND       PRES   REMARKS
PARKERSBURG    SUNNY     77  54  44 E5        30.22F                  
$$

WVZ006-281800-
Western West Virginia
  
CITY           SKY/WX    TMP DP  RH WIND       PRES   REMARKS
HUNTINGTON     SUNNY     78  56  46 NW5       30.19F                  
$$

WVZ015-281800-
West Central West Virginia
  
CITY           SKY/WX    TMP DP  RH WIND       PRES   REMARKS
CHARLESTON     MOSUNNY   78  58  49 CALM      30.19F                  
$$

WVZ022-031-281800-
North Central West Virginia
  
CITY           SKY/WX    TMP DP  RH WIND       PRES   REMARKS
CLARKSBURG     SUNNY     78  55  44 VRB5      30.20F                  
MORGANTOWN     MOSUNNY   79  51  37 VRB5      30.21F                  
$$

WVZ025-035-042-045-281800-
Southern West Virginia
  
CITY           SKY/WX    TMP DP  RH WIND       PRES   REMARKS
BECKLEY        MOSUNNY   76  58  53 W8        30.26F                  
LOGAN            N/A     77  63  61 VRB6      30.21F                  
BLUEFIELD      PTSUNNY   74  58  57 VRB3      30.28F                  
LEWISBURG      SUNNY     76  59  55 NW6       30.26F                  
$$

WVZ047-281800-
Northern Mountains of West Virginia
  
CITY           SKY/WX    TMP DP  RH WIND       PRES   REMARKS
ELKINS         MOSUNNY   76  58  53 VRB6      30.24F                  
$$

WVZ052-281800-
Eastern Panhandle of West Virginia
  
CITY           SKY/WX    TMP DP  RH WIND       PRES   REMARKS
MARTINSBURG    MOSUNNY   78  55  44 CALM      30.21F                  
PETERSBURG     MOSUNNY   78  58  49 NE3       30.21F                  
$$

Return to Home page


Western Regional Climate Center, wrcc@dri.edu